Simultaneous Nadir Overpasses (SNOs) Predictions

Prediction of SNOs between NOAA-19 and TERRA Satellite Orbit:

Table of predicted SNOs for the next 14.0 days since TLE Epoch: 4/13/2024
Index Date (NOAA-19) Time (NOAA-19) Lat,Lon (NOAA-19) SZA (NOAA-19 ) Date (TERRA) Time (TERRA) Lat,Lon (TERRA) SZA (TERRA ) Distance(km) Time Diff (sec)
1 04/13/2024 10:07:21 -79.80,-132.65 108.98 04/13/2024 10:07:15 -79.79,-132.69 108.99 1.04 6
2 04/15/2024 13:06:31 -79.68,-178.60 109.91 04/15/2024 13:07:23 -79.68,-178.54 109.89 1.35 52
3 04/15/2024 13:57:26 79.82, -9.86 70.30 04/15/2024 13:56:41 79.82, -9.90 70.29 0.87 45
4 04/17/2024 16:56:34 79.74, -55.47 69.44 04/17/2024 16:56:48 79.73, -55.59 69.42 2.59 14
5 04/19/2024 19:55:43 79.62,-101.40 68.53 04/19/2024 19:56:55 79.63,-101.36 68.55 1.11 72
6 04/19/2024 20:46:38 -79.75, 67.12 111.29 04/19/2024 20:46:13 -79.75, 67.17 111.29 1.19 25
7 04/21/2024 23:45:47 -79.64, 21.32 112.17 04/21/2024 23:46:20 -79.64, 21.33 112.16 0.21 33
8 04/22/2024 00:36:41 79.76,-170.19 68.01 04/22/2024 00:35:38 79.77,-170.09 68.01 2.16 63
9 04/24/2024 03:35:48 79.69, 144.36 67.21 04/24/2024 03:35:44 79.68, 144.22 67.19 3.13 4
10 04/26/2024 06:34:56 79.58, 98.59 66.37 04/26/2024 06:35:50 79.57, 98.45 66.36 3.07 54



Historial Predications of SNOs between NOAA-19 and TERRA
